Showing default

COSMOS 252, 3530

Orbit data source: Space-Track

COSMOS 252, 3530 is a payload satellite owned by PKO (CIS) in LEO that was launched on Fri, 01 Nov 1968 UTC via a TSIKLON-2A launch vehicle from the Tyuratam Missile And Space Complex (TTMTR). Payload-class satellites include a variety of spacecraft equipped with specific instruments for various scientific and technological missions. These include communications satellites like Starlink; space stations such as the ISS; scientific satellites like the Hubble; Earth observation satellites from companies like Planet Labs, Umbra, and HawkEye 360; GPS; miniature CubeSats for education and research; and military/defense satellites.

Loading next visibility...
Identifier
3530, 1968-097A
Orbit
LEO
Country
Flag of CISCIS
Related business
Manufacturer
TSKBM/KB1
Mission
Spacecraft
Bus & Motor
IS, Unknown motor
Mass
1,400 kg wet, ~1,400 kg dry
Launch date (UTC)
1968-11-01 (57 years ago)
Launch vehicle
TSIKLON-2A
Launch site
Tyuratam Missile And Space Complex (TTMTR)
Object type
Payload
Rocket body
Debris
Shape & HBR
Unknown
Radar Cross Section
Large (>1 m²)

Expand to show TLE details & history
Last TLE update: 22 hours ago

TLE from 22 hours ago
0 COSMOS 252
1 03530U 68097A   26034.54313964  .00000020  00000-0  49021-4 0  9993
2 03530  62.3201 120.8332 1002608  28.0768 337.0750 12.88243753688734
Epoch: 2026-02-03T13:02Z
TLE epoch observation values (Epoch: 2026-02-03T13:02:07.264Z)
Latitude
-0.00004°
Longitude
151.58035°
Altitude
613.821 km
Speed
7.887 km/s
True Right ascension
08h 03m 19s
True Declination
0° 00' 00"
Sunlit
Object was in full shadow at epoch
Visualization orbit readout
Latitude
Unknown
Longitude
Unknown
Altitude
Unknown
Speed
Unknown
Apparent Right ascension
Unknown
Apparent Declination
Unknown
Sunlit
N/A
Visualization observer readout
Local Sidereal Time
12:37:52
Azimuth
Unknown
Elevation
Unknown
Doppler factor
Unknown
Orbital elements
Apogee altitude
2,078.047 km
Perigee altitude
536.915 km
Semi-major axis
7,685.618 km
Eccentricity
0.10026
Inclination
62.3201°
RAAN
120.8332°
Arg. of periapsis
28.0768°
True anomaly
332.02591°
Mean anomaly
337.075°
Eccentric anomaly
334.61207°
Mean motion
3.22125 °/min
Orbital period
111.76 mins
BSTAR
0.000049021
Loading maneuver chart data...
Computing Atmospheric mass density...

Documentation

Showing up to 5 results
|